Regional Weather Roundup
Issued by NWS

Home | Current Version | Previous Version | Text Only | Print | Product List | Glossary On
Versions: 1 2 3 4 5 6 7 8 9 10 11 12 13 14 15 16 17 18 19 20 21 22 23 24 25 26 27 28 29 30 31 32 33 34 35 36 37 38 39 40 41 42 43 44 45 46 47 48 49 50
000
ASUS45 KTFX 202019
RWRMT
MONTANA HOURLY WEATHER ROUNDUP
NATIONAL WEATHER SERVICE GREAT FALLS MT
219 PM MDT WED AUG 20 2014

NOTE: "FAIR" INDICATES FEW OR NO CLOUDS BELOW 12000 FEET WITH NO
SIGNIFICANT WEATHER AND/OR OBSTRUCTIONS TO VISIBILITY.

* THESE STATIONS ARE NOT UNDER NWS QUALITY CONTROL. THEY DO NOT
   REPORT WEATHER SUCH AS PRECIPITATION OR FOG.

MTZ001>007-043-202100-
WEST OF THE DIVIDE
CITY           SKY/WX    TMP DP  RH WIND       PRES   REMARKS
KALISPELL      CLOUDY    70  54  57 S17       29.87S
MISSOULA       CLOUDY    70  54  57 NW6       29.90F
BUTTE          TSTM      64  43  47 CALM      29.96R
MULLAN PASS    CLOUDY    57  50  78 N5        30.00R
* ESSEX        N/A       68  47  47 SE2G9      N/A
* LINCOLN      N/A       73  47  40 S10G16     N/A
* LOOKOUT PASS N/A       61  52  72 VRB4G9     N/A
* POLSON       N/A       59  57  93 W3         N/A
* RONAN APT    CLOUDY    64  55  73 N/A        N/A
* SEELEY LAKE  N/A       66  50  56 W6         N/A
* THOMP F APT  CLOUDY    65  49  56 SE5G17     N/A
* YAAK HILL    N/A       73  49  43 N/A        N/A
$$

MTZ008-052>055-202100-
SOUTHWEST MONTANA
CITY           SKY/WX    TMP DP  RH WIND       PRES   REMARKS
BOZEMAN        PTCLDY    77  43  30 NE3       29.87F
DILLON         PTSUNNY   64  52  65 SE3       29.91F
W YELLOWSTONE  SUNNY     63  46  54 S7        30.04F
* THREE FORKS  PTCLDY    79  52  39 N/A        N/A
* BOULDER HILL N/A       66  43  43 N4         N/A
* RAYNOLDS PAS N/A       63  43  48 SE17G24    N/A
* WHITEHALL    N/A       77  45  32 NE2G7      N/A
* WISE RIVER   N/A       67  46  47 SE11       N/A
$$

MTZ009>010-012-014-046-048-049-054-202100-
EAST SLOPES AND CENTRAL MONTANA
CITY           SKY/WX    TMP DP  RH WIND       PRES   REMARKS
CUT BANK       CLOUDY    73  46  38 NW8       29.85S
GREAT FALLS    TSTM      70  48  46 NW18G26   29.84R
HELENA         PTCLDY    79  41  26 W8        29.82F
MALMSTROM AFB  LGT RAIN  75  46  36 NW18G24   29.85R
* CONRAD       PTSUNNY   75  52  45 N/A        N/A
* DEARBORN     N/A       69  48  47 SW6G11     N/A
* EAST GLACIER N/A       68  47  47 W12G22     N/A
* MONARCH      N/A       68  40  36 N3         N/A
* PENDROY      N/A       70  46  42 VRB4G9     N/A
* ROGERS PASS  N/A       70  42  36 SE9G18     N/A
* SAINT MARY   N/A       71  54  55 W6G15      N/A
* SWEET GRASS  N/A       61  61 100 N8         N/A
* WHITE SULPH  N/A       76  46  35 E4G9       N/A
$$

MTZ011-013-016-021-035-040-045-047-050-051-202100-
NORTH CENTRAL MONTANA
CITY           SKY/WX    TMP DP  RH WIND       PRES   REMARKS
HAVRE          SUNNY     75  52  45 CALM      29.80S
LEWISTOWN      PTSUNNY   75  46  36 VRB6      29.86F
* FORT BENTON  SUNNY     75  48  39 E3        29.81F
* CHESTER      N/A       76  53  45 SW3G8      N/A
* DENTON       N/A       80  51  36 S7G12      N/A
* GEYSER       N/A       78  45  31 NW9G15     N/A
* JUDITH GAP   N/A       73  52  48 E6G11      N/A
* LOMA         N/A       77  50  39 NW6        N/A
$$

MTZ017>020-022>027-061-062-202100-
NORTHEAST MONTANA
CITY           SKY/WX    TMP DP  RH WIND       PRES   REMARKS
GLASGOW        CLOUDY    72  57  59 W10       29.77R
GLENDIVE       CLOUDY    66  63  90 NE7       29.78R
JORDAN         CLOUDY    70  55  59 NW10      29.80R
SIDNEY         CLOUDY    70  61  73 W12       29.76R
WOLF POINT     LGT RAIN  75  63  66 SW9       29.74R
* BEAVER HILL  N/A       70  57  64 NW10       N/A
* CIRCLE       N/A       75  60  60 W8         N/A
* LINDSAY DVD  N/A       73  60  64 NW12G17    N/A
* SACO         N/A       77  55  47 W9         N/A
$$

MTZ028>042-056>058-202100-
SOUTHCENTRAL AND SOUTHEAST MONTANA
CITY           SKY/WX    TMP DP  RH WIND       PRES   REMARKS
BAKER          CLOUDY    72  59  64 N10       29.78S
BILLINGS       PTCLDY    79  46  31 SW6       29.86S
LIVINGSTON     PTCLDY    81  39  22 SW16G23   29.86F
MILES CITY     CLOUDY    79  55  44 N18       29.77R
* LAUREL APT   PTCLDY    81  45  28 N/A        N/A
* ROUNDUP APT  PTCLDY    79  45  30 N6         N/A
* ALZADA       N/A       83  49  31 NW9G17     N/A
* HYSHAM       N/A       79  46  31 NE6        N/A
* LAME DEER    N/A       75  47  37 NW11G19    N/A
* REED POINT   N/A       82  49  32 W9         N/A
* ROSCOE HILL  N/A       74  44  34 W1         N/A
$$

REGIONAL REPORTS...DAKOTAS
CITY           SKY/WX    TMP DP  RH WIND       PRES   REMARKS
WILLISTON      RAIN      73  66  79 SW6       29.74R
DICKINSON      TSTM      72  66  81 N8        29.72R
BEACH          N/A       73  57  57 NW8       29.79R
CROSBY         PTCLDY    75  66  74 S17       29.74R
TIOGA          LGT RAIN  73  73 100 S7        29.78R
WATFORD CITY   PTSUNNY   79  57  47 W8        29.74R
BISMARCK       CLOUDY    82  68  63 SW8       29.72S HI  85
GRAND FORKS    PTSUNNY   82  68  63 SE12      29.78R HI  85
FARGO          CLOUDY    84  66  55 S13G23    29.79R HI  86
BUFFALO SD     PTSUNNY   84  57  40 NW12      29.66S HI  83
RAPID CITY     PTCLDY    86  59  40 SE10      29.73F HI  85
$$

REGIONAL REPORTS...WYOMING/IDAHO/WASHINGTON
CITY           SKY/WX    TMP DP  RH WIND       PRES   REMARKS
GILLETTE       SUNNY     82  46  28 NW16G25   29.86R
SHERIDAN       CLOUDY    77  46  33 NW15      29.87S
CODY           PTSUNNY  N/A N/A N/A N7        29.92F
YELLOWSTONE LA PTSUNNY   55  45  69 CALM      30.15S
SALMON         CLOUDY    66  48  52 E6        29.91S
MULLAN PASS    CLOUDY    57  50  78 N5        30.00S
SAND POINT     CLOUDY    70  55  59 E5        29.84S
SPOKANE        PTSUNNY   75  48  39 S15       29.84S
$$

REGIONAL REPORTS...ALBERTA
CITY           SKY/WX    TMP DP  RH WIND       PRES   REMARKS
CALGARY        LGT RAIN  57  48  72 N12       29.94R
LETHBRIDGE     LGT RAIN  61  57  87 N8        29.88R
MEDICINE HAT   CLOUDY    75  55  50 VRB6      29.80S
EDMONTON       PTSUNNY   64  43  47 NW15G23   29.92S
WATERTON GATE  N/A       64  54  70 N3         N/A
CARDSTON       N/A       64  57  78 N6         N/A
MILK RIVER     N/A       68  54  61 N9         N/A
$$

REGIONAL REPORTS...SASKATCHEWAN
CITY           SKY/WX    TMP DP  RH WIND       PRES   REMARKS
SWIFT CURRENT  PTCLDY    73  50  44 NW13G22   29.76S
MOOSE JAW      PTSUNNY   75  61  62 NW9       29.73R
REGINA         LGT RAIN  68  66  93 S6        29.73R
VAL MARIE      N/A       77  55  47 NW12G18    N/A
ASSINIBOIA     N/A       75  57  54 N8         N/A
CORONACH       N/A       64  61  90 N3         N/A

$$



USA.gov is the U.S. government's official web portal to all federal, state and local government web resources and services.